Location: Pasadena, ca
(34.1243°N, 118.1037°W)
Time: 01:55:20
(UTC-07:00)

N. Korean satellite - Pass Details

Date: 11 October 2017
Orbit: 459 x 517 km, 97.2° (Epoch: 19 October)

Event Time Altitude Azimuth Distance (km) Brightness Sun altitude
Rises 19:05:47 0° 172° (S) 2,570 10.2 -9.7°
Reaches altitude 10° 19:07:52 10° 174° (S) 1,682 9.3 -10.1°
Maximum altitude 19:11:29 72° 258° (WSW) 514 6.8 -10.9°
Drops below altitude 10° 19:15:03 10° 344° (NNW) 1,661 9.5 -11.6°
Sets 19:17:06 0° 347° (NNW) 2,534 10.4 -12.0°
